This demonstration page uses our WeatherBlox Daily Observations layout. Learn more.

Left ArrowRight Arrow

Hourly Observations for December 7, 2021

Temp ( °F °C ) Dew Point ( °F °C ) Humidity (%) Winds ( mph kmh ) Pressure ( in mb ) Visibility ( mi km ) Precip ( " mm )
12:15 am 00:15 Cloudy 28 -2 16 -9 59 59 S 21 33 30.10 1019 10 16 0.00 0.00
12:35 am 00:35 Mostly Cloudy 29 -1.6 16 -9 57 57 S 18 30 30.10 1019 10 16 0.00 0.00
12:55 am 00:55 Mostly Cloudy 29 -1.6 16 -9 57 57 S 20 31 30.09 1019 10 16 0.00 0.00
1:15 am 01:15 Cloudy 29 -1.6 16 -8.8 58 58 S 17 28 30.07 1018 10 16 0.00 0.00
1:35 am 01:35 Mostly Cloudy 30 -1.2 16 -8.9 56 56 S 17 28 30.06 1018 10 16 0.00 0.00
1:55 am 01:55 Partly Cloudy 30 -1 16 -9 55 55 S 17 28 30.05 1018 10 16 0.00 0.00
2:15 am 02:15 Partly Cloudy 30 -1 15 -9.2 54 54 S 18 30 30.03 1017 10 16 0.00 0.00
2:35 am 02:35 Mostly Cloudy 30 -1 15 -9.2 54 54 S 20 31 30.04 1017 10 16 0.00 0.00
2:55 am 02:55 Mostly Cloudy 30 -1.1 15 -9.2 55 55 S 17 28 30.03 1017 10 16 0.00 0.00
3:15 am 03:15 Partly Cloudy 29 -1.4 15 -9.5 54 54 S 15 24 30.03 1017 10 16 0.00 0.00
3:35 am 03:35 Partly Cloudy 29 -1.6 15 -9.5 55 55 S 15 24 30.04 1017 10 16 0.00 0.00
3:55 am 03:55 Partly Cloudy 29 -1.9 15 -9.5 56 56 S 13 20 30.02 1017 10 16 0.00 0.00
4:15 am 04:15 Clear 28 -2 15 -9.5 57 57 S 16 26 30.01 1016 10 16 0.00 0.00
4:35 am 04:35 Clear 29 -1.7 15 -9.3 57 57 SSW 17 28 30.01 1016 10 16 0.00 0.00
4:55 am 04:55 Clear 28 -2 15 -9.3 58 58 SSW 16 26 30.01 1016 10 16 0.00 0.00
5:15 am 05:15 Clear 28 -2.2 15 -9.2 59 59 SSW 12 19 30.03 1017 10 16 0.00 0.00
5:35 am 05:35 Clear 28 -2.3 16 -9.1 60 60 SSW 13 20 30.03 1017 10 16 0.00 0.00
5:55 am 05:55 Clear 28 -2.3 16 -9 60 60 SSW 10 17 30.03 1017 10 16 0.00 0.00
6:15 am 06:15 Clear 27 -2.6 16 -9 62 62 SSW 12 19 30.03 1017 10 16 0.00 0.00
6:35 am 06:35 Clear 27 -2.8 16 -9 63 63 SSW 8 13 30.04 1017 10 16 0.00 0.00
6:55 am 06:55 Clear 26 -3.2 16 -9 65 65 SSW 7 11 30.06 1018 10 16 0.00 0.00
7:15 am 07:15 Clear 26 -3.6 15 -9.2 66 66 S 6 9 30.06 1018 10 16 0.00 0.00
7:35 am 07:35 Clear 25 -4 15 -9.2 67 67 SSW 5 7 30.07 1018 10 16 0.00 0.00
7:55 am 07:55 Sunny 24 -4.2 15 -9.3 68 68 SSW 6 9 30.07 1018 10 16 0.00 0.00
8:15 am 08:15 Sunny 25 -3.9 15 -9.2 67 67 SSW 6 9 30.06 1018 10 16 0.00 0.00
8:35 am 08:35 Sunny 25 -3.9 15 -9.2 67 67 SW 5 7 30.07 1018 10 16 0.00 0.00
8:55 am 08:55 Sunny 25 -3.9 16 -9 68 68 SW 5 7 30.06 1018 10 16 0.00 0.00
9:15 am 09:15 Sunny 27 -2.9 17 -8.6 65 65 SW 3 6 30.06 1018 10 16 0.00 0.00
9:35 am 09:35 Sunny 30 -1.1 17 -8.5 58 58 SW 7 11 30.06 1018 10 16 0.00 0.00
9:55 am 09:55 Sunny 32 -0.2 17 -8.5 54 54 SW 8 13 30.05 1017 10 16 0.00 0.00
10:15 am 10:15 Sunny 33 0.3 17 -8.6 52 52 WSW 6 9 30.05 1018 10 16 0.00 0.00
10:35 am 10:35 Sunny 33 0.7 16 -9 49 49 W 6 9 30.05 1018 10 16 0.00 0.00
10:55 am 10:55 Sunny 34 1.2 16 -9.1 47 47 WNW 3 6 30.04 1017 10 16 0.00 0.00
11:15 am 11:15 Sunny 36 2.2 15 -9.4 42 42 NNW 7 11 30.03 1017 10 16 0.00 0.00
11:35 am 11:35 Sunny 37 2.9 15 -9.2 41 41 N 7 11 30.01 1016 10 16 0.00 0.00
11:55 am 11:55 Sunny 38 3.3 15 -9.3 40 40 NW 9 15 30.00 1016 10 16 0.00 0.00
12:15 pm 12:15 Sunny 38 3.3 16 -9.1 40 40 NW 7 11 29.99 1016 10 16 0.00 0.00
12:35 pm 12:35 Sunny 38 3.3 16 -9.1 40 40 N 5 7 29.97 1015 10 16 0.00 0.00
12:55 pm 12:55 Sunny 39 4 15 -9.2 38 38 NNE 9 15 29.95 1014 10 16 0.00 0.00
1:15 pm 13:15 Sunny 41 5.1 16 -8.8 36 36 N 12 19 29.95 1014 10 16 0.00 0.00
1:35 pm 13:35 Sunny 42 5.7 17 -8.6 35 35 N 10 17 29.93 1014 10 16 0.00 0.00
1:55 pm 13:55 Partly Cloudy 41 5.1 16 -8.8 36 36 N 6 9 29.94 1014 10 16 0.00 0.00
2:15 pm 14:15 Partly Cloudy 42 5.5 16 -8.7 36 36 Calm 29.94 1014 10 16 0.00 0.00
2:35 pm 14:35 Sunny 42 5.7 16 -8.8 35 35 Calm 29.93 1014 10 16 0.00 0.00
2:55 pm 14:55 Sunny 43 6 16 -8.8 34 34 Calm 29.93 1013 10 16 0.00 0.00
3:15 pm 15:15 Sunny 43 6.1 16 -8.9 34 34 Calm 29.93 1013 10 16 0.00 0.00
3:35 pm 15:35 Sunny 43 6.2 16 -8.7 34 34 Calm 29.92 1013 10 16 0.00 0.00
3:55 pm 15:55 Sunny 43 6.1 16 -8.7 34 34 Calm 29.93 1013 10 16 0.00 0.00
4:15 pm 16:15 Sunny 43 6 16 -8.7 34 34 Calm 29.93 1013 10 16 0.00 0.00
4:35 pm 16:35 Sunny 42 5.6 17 -8.6 36 36 Calm 29.94 1014 10 16 0.00 0.00
4:55 pm 16:55 Sunny 41 5 16 -8.7 37 37 Calm 29.95 1014 10 16 0.00 0.00
5:15 pm 17:15 Clear 38 3.3 16 -9 40 40 Calm 29.96 1015 10 16 0.00 0.00
5:35 pm 17:35 Clear 35 1.6 15 -9.3 45 45 N 6 9 30.00 1016 10 16 0.00 0.00
5:55 pm 17:55 Clear 31 -0.8 15 -9.7 51 51 NE 3 6 30.01 1016 10 16 0.00 0.00
6:15 pm 18:15 Clear 30 -1 14 -10.1 50 50 NE 6 9 30.02 1017 10 16 0.00 0.00
6:35 pm 18:35 Clear 30 -1.1 13 -10.4 50 50 ENE 6 9 30.03 1017 10 16 0.00 0.00
6:55 pm 18:55 Clear 30 -1 14 -9.8 52 52 SE 6 9 30.00 1016 10 16 0.00 0.00
7:15 pm 19:15 Clear 31 -0.8 15 -9.7 51 51 Calm 30.02 1017 10 16 0.00 0.00
7:35 pm 19:35 Clear 30 -1.1 15 -9.5 53 53 S 5 7 30.04 1017 10 16 0.00 0.00
7:55 pm 19:55 Clear 32 -0.1 15 -9.2 51 51 SSW 3 6 30.02 1016 10 16 0.00 0.00
8:15 pm 20:15 Clear 29 -1.5 16 -9 57 57 S 5 7 30.02 1017 10 16 0.00 0.00
8:35 pm 20:35 Clear 30 -1 16 -8.9 55 55 SSW 7 11 30.01 1016 10 16 0.00 0.00
8:55 pm 20:55 Clear 31 -0.3 17 -8.4 55 55 SW 3 6 30.01 1016 10 16 0.00 0.00
9:15 pm 21:15 Clear 32 0.1 17 -8.5 53 53 SSW 3 6 30.01 1016 10 16 0.00 0.00
9:35 pm 21:35 Clear 33 0.5 17 -8.5 51 51 SSW 5 7 30.00 1016 10 16 0.00 0.00
9:55 pm 21:55 Partly Cloudy 32 0 17 -8.5 53 53 S 3 6 30.00 1016 10 16 0.00 0.00
10:15 pm 22:15 Partly Cloudy 31 -0.4 17 -8.5 55 55 Calm 30.01 1016 10 16 0.00 0.00
10:35 pm 22:35 Partly Cloudy 30 -1 17 -8.5 57 57 SSW 5 7 30.01 1016 10 16 0.00 0.00
10:55 pm 22:55 Cloudy 32 0 17 -8.1 55 55 SSW 5 7 30.00 1016 10 16 0.00 0.00
11:15 pm 23:15 Cloudy 32 0 17 -8.1 55 55 Calm 30.00 1016 10 16 0.00 0.00
11:35 pm 23:35 Mostly Cloudy 32 0 17 -8.1 55 55 SSW 3 6 30.00 1016 10 16 0.00 0.00
11:55 pm 23:55 Mostly Cloudy 32 -0.1 18 -8 56 56 SW 3 6 30.02 1016 10 16 0.00 0.00

Powered by AerisWeather